Regional Weather Roundup
Issued by NWS

Home | Current Version | Previous Version | Text Only | Print | Product List | Glossary Off
Versions: 1 2 3 4 5 6 7 8 9 10 11 12 13 14 15 16 17 18 19 20 21 22 23 24 25 26 27 28 29 30 31 32 33 34 35 36 37 38 39 40 41 42 43 44 45 46 47 48 49 50

386
ASUS45 KSLC 230910
RWRUT

UTAH REGIONAL WEATHER ROUNDUP
NATIONAL WEATHER SERVICE SALT LAKE CITY UT
200 AM MST THU NOV 23 2017

UTZ001>011-023>025-231000-

NORTHERN UTAH

CITY           SKY/WX    TMP DP  RH WIND       PRES   REMARKS
BRIGHAM CITY   PTCLDY    40  37  89 CALM      30.34R
HILL AFB       MOCLDY    49  38  68 E10       30.33S
LOGAN          PTCLDY    36  33  89 CALM      30.32F
OGDEN          PTCLDY    48  39  71 S10       30.32F
SALT LAKE CITY MOCLDY    47  40  76 SE7       30.31F
TOOELE VALLEY  MOCLDY    46  41  81 S7        30.32F
WENDOVER       MOCLDY    39  32  76 CALM      30.32F
HEBER CITY       N/A     36  34  93 CALM      30.38F
WEST JORDAN    MOCLDY    49  42  74 S10       30.33F

$$

UTZ011>015-024>027-231000-

CENTRAL/NORTHEAST UTAH

CITY           SKY/WX    TMP DP  RH WIND       PRES   REMARKS
PROVO AIRPORT  MOCLDY    41  38  89 SE3       30.36F
MOAB/CANYONLAN PTCLDY    35  19  52 CALM      30.37S
DELTA          PTCLDY    37  32  81 CALM      30.36S
PRICE          PTCLDY    37  32  82 NE3       30.39F
RICHFIELD      CLEAR     34  34 100 CALM      30.43S
ROOSEVELT      CLOUDY    32  28  86 CALM      30.41S
VERNAL         CLOUDY    37  30  75 W7        30.39F WCI  32

$$

UTZ013>016-019>022-027-231000-

SOUTHERN UTAH

CITY           SKY/WX    TMP DP  RH WIND       PRES   REMARKS
BRYCE CANYON   PTCLDY    28  26  92 W9        30.50S WCI  19
CEDAR CITY     PTCLDY    39  32  76 E3        30.38F
MILFORD        CLEAR     34  29  82 S6        30.37F WCI  29
ST GEORGE      PTSUNNY   47  30  51 S3        30.30S
HANKSVILLE     PTCLDY    32  18  55 CALM      30.40S
KANAB          CLEAR     46  32  57 N9        30.41S
BLANDING         N/A     47  32  56 N5        30.46R

$$

REGIONAL REPORTS     COLORADO/ARIZONA

CITY           SKY/WX    TMP DP  RH WIND       PRES   REMARKS
CRAIG, CO      CLOUDY    28  26  92 CALM      30.41F
GRAND JUNCTION CLOUDY    38  31  76 E6        30.39F WCI  33
RIFLE, CO      CLOUDY    34  31  88 CALM      30.43F
MONTROSE, CO   CLOUDY    34  30  85 S8        30.45S WCI  27
CORTEZ, CO     CLOUDY    30  25  81 NE9       30.38S WCI  22
COLORADO CITY    N/A     43  32  65 SE5       30.40S
PAGE, AZ       PTCLDY    47  30  51 SW3       30.36F
GRAND CANYON   PTCLDY    25  19  78 CALM      30.43S
KINGMAN, AZ    CLEAR     48  29  47 SE3       30.25F
FLAGSTAFF, AZ  PTCLDY    30  23  75 CALM      30.43R

$$

REGIONAL REPORTS    NEVADA/IDAHO/WYOMING

CITY           SKY/WX    TMP DP  RH WIND       PRES   REMARKS
LAS VEGAS, NV  MOCLDY    60  39  45 CALM      30.21S
ELY, NY        CLEAR     37  28  70 S8        30.40F WCI  31
ELKO, NV       PTCLDY    38  36  92 CALM      30.31F
POCATELLO, ID  FOG       36  35  96 E5        30.28F VSB 1   WCI  32
BURLEY, ID     CLEAR     40  37  89 N5        30.23F
FORT BRIDGER,    N/A     47  36  67 SW14      30.41F
EVANSTON, WY   CLOUDY    39  36  89 SW8       30.41F WCI  33
ROCK SPRINGS,  CLOUDY    42  35  76 SW12      30.38F
KEMMERER, WY   CLOUDY    36  34  93 NW5       30.40F WCI  32

$$




USA.gov is the U.S. government's official web portal to all federal, state and local government web resources and services.